SCP
0 0 -0 0 -0 0 0 0 0 0 -0 0 0 0 0 0 0 0 0 0 0 0 0 0 0 0 0 0 0 0 0 0 0 0 0 0 0 0 0 0 0 0 0 0
0 0 -0 0 0 0 0 0 0 0 0 0 0 0 0 0 0 0 0 0 0 0 0 0 0 0 0 0 0 0 0 0 0 0 0 0 0 0 -0 0 0 0 0 0
-0 0 0 -0 0 0 0 0 0 -0 0 0 0 0 0 0 0 0 0 0 0 0 0 0 0 0 0 0 0 0 0 0 0 0 0 0 0 0 -0 0 0 0 0 0
0 0 0 0 0 0 0 0 0 0 0 0 0 0 0 0 0 0 0 0 0 0 0 0 0 0 0 0 0 0 0 0 0 0 0 0 0 0 0 0 0 0 0 0
0 -0 0 0 0 0 0 0 0 0 0 0 0 0 0 0 0 0 0 0 0 0 0 0 0 0 0 0 0 0 0 0 0 0 0 0 0 0 0 0 0 0 0 0
0 0 0 0 0 0 0 0 0 0 0 0 0 0 0 0 0 0 0 0 0 0 0 0 0 0 0 0 0 0 0 0 0 0 0 0 0 0 0 0 0 0 0 0
0 0 0 0 0 0 0 0 0 0 0 0 0 0 0 0 0 0 0 0 0 0 0 0 0 0 0 0 0 0 0 0 0 0 0 0 0 0 0 0 0 0 0 0
0 0 0 0 0 0 0 0 0 0 0 0 0 0 0 0 0 0 0 0 0 0 0 0 0 0 0 0 0 0 0 0 0 0 0 0 0 0 0 0 0 0 0 0
0 0 0 0 0 0 0 0 0 0 0 0 0 0 0 0 0 0 0 0 0 0 0 0 0 0 0 0 0 0 0 0 0 0 0 0 0 0 0 0 0 0 0 0
0 0 0 0 0 0 0 0 0 0 0 0 0 0 0 0 0 0 0 0 0 0 0 0 0 0 0 0 0 0 0 0 0 0 0 0 0 0 0 0 0 0 0 0
0 0 0 0 0 0 0 0 0 0 0 0 0 0 0 0 0 0 0 0 0 0 0 0 0 0 0 0 0 0 0 0 0 0 0 0 0 0 0 0 0 0 0 0
0 0 0 0 0 0 0 0 0 0 0 0 0 0 0 0 0 0 0 0 0 0 0 0 0 0 0 0 0 0 0 0 0 0 0 0 0 0 0 0 0 0 0 0
0 0 0 0 0 0 0 0 0 0 0 0 0 0 0 0 0 0 0 0 0 0 0 0 0 0 0 0 0 0 0 0 0 0 0 0 0 0 0 0 0 0 0 0
0 0 0 0 0 0 0 0 0 0 0 0 0 0 0 0 0 0 0 0 0 0 0 0 0 0 0 0 0 0 0 0 0 0 0 0 0 0 0 0 0 0 0 0
0 0 0 0 0 0 0 0 0 0 0 0 0 0 0 0 0 0 0 0 0 0 0 0 0 0 0 0 0 0 0 0 0 0 0 0 0 0 0 0 0 0 -0 0
0 0 0 0 0 0 0 0 0 0 0 0 0 0 0 0 0 0 0 0 0 0 0 0 0 0 0 0 0 0 0 0 0 0 0 0 0 0 0 0 0 0 -0 -0
0 0 0 0 0 0 0 0 0 0 0 0 0 0 0 0 0 0 0 0 0 0 0 0 0 0 0 0 0 0 0 0 0 0 0 0 0 0 0 0 0 0 0 0
0 0 0 0 0 0 0 0 0 0 0 0 0 0 0 0 0 0 0 0 0 0 0 0 0 0 0 0 0 0 0 0 0 0 0 0 0 0 0 0 0 0 0 0
0 0 0 0 0 0 0 0 0 0 0 0 0 0 0 0 0 0 0 0 0 0 0 0 0 0 0 0 0 0 0 0 0 0 0 0 0 0 0 0 0 0 0 0
0 0 0 0 0 0 0 0 0 0 0 0 0 0 0 0 0 0 0 0 0 0 0 0 0 0 0 0 0 0 0 0 0 0 0 0 0 0 0 0 0 0 0 0
0 0 0 0 0 0 0 0 0 0 0 0 0 0 0 0 0 0 0 0 0 0 1 0 0 0 0 0 0 0 0 0 0 0 0 0 0 0 0 0 0 0 0 0
0 0 0 0 0 0 0 0 0 0 0 0 0 0 0 0 0 0 0 0 0 0 0 0 0 0 0 0 0 0 0 0 0 0 0 0 0 0 0 0 0 0 0 0
0 0 0 0 0 0 0 0 0 0 0 0 0 0 0 0 0 0 0 1 1 0 0 0 0 0 0 0 0 0 0 0 0 0 0 0 0 0 0 0 0 0 0 0
0 0 0 0 0 0 0 0 0 0 0 0 0 0 0 0 0 0 0 0 0 0 0 0 0 0 0 0 0 0 0 1 0 0 0 0 0 0 0 0 0 0 0 0
0 0 0 0 0 0 0 0 0 0 0 0 0 0 0 0 0 0 0 0 0 0 0 0 0 0 0 0 0 0 0 0 0 0 0 0 0 0 0 0 0 0 0 0
0 0 0 0 0 0 0 0 0 0 0 0 0 0 0 0 0 0 0 0 0 0 0 0 0 0 0 0 0 0 0 0 0 0 0 0 0 0 0 0 0 0 0 0
0 0 0 0 0 0 0 0 0 0 0 0 0 0 0 0 0 0 0 0 0 0 0 0 0 0 0 0 0 0 0 0 0 0 0 0 0 0 0 0 0 0 0 0
Wind_Speed_500mb
8 8 11 8 9 8 15 14 11 22 15 14 20 17 17 13 7 2 7 12 15 14 16 18 18 18 20 21 22 24 22 22 23 29 25 28 31 29 34 32 28 34 36 33
12 7 14 14 4 11 4 8 11 11 25 16 12 16 19 15 6 2 9 10 12 11 12 16 18 18 19 19 19 22 21 20 21 22 29 28 31 30 31 37 26 33 42 38
18 2 12 20 13 3 4 6 11 18 18 9 7 15 16 13 4 7 6 7 9 8 9 12 16 17 18 16 18 20 18 18 20 21 21 26 28 28 28 35 30 31 40 38
11 6 19 18 9 6 8 5 3 8 8 7 4 14 16 7 14 5 3 7 5 5 4 8 13 16 16 14 18 18 16 17 19 19 20 21 25 26 27 28 26 29 35 31
12 20 11 20 12 6 4 9 4 11 5 4 6 11 10 7 7 5 4 3 4 3 4 7 12 13 15 14 17 17 15 16 16 17 19 21 22 25 23 22 24 28 33 31
16 11 9 20 18 11 3 8 10 8 5 3 7 20 23 18 11 10 4 3 3 4 4 5 9 11 15 14 17 15 13 14 15 16 17 20 23 22 21 20 21 16 23 27
17 13 3 21 21 13 14 12 10 10 6 5 9 22 24 15 11 8 4 5 5 5 2 2 6 10 14 14 15 15 12 13 14 15 16 18 20 21 22 20 15 13 16 22
12 10 18 22 18 8 17 17 14 8 6 6 10 14 14 12 10 7 5 3 4 3 3 2 3 9 12 12 12 14 12 13 13 15 16 16 19 20 15 22 18 16 15 12
9 10 7 19 3 19 21 16 13 10 7 6 15 18 14 12 9 5 6 6 5 5 6 4 4 7 10 10 10 12 13 13 13 15 17 17 17 19 21 17 18 20 14 11
14 19 12 22 10 20 22 17 16 15 13 9 17 19 17 14 10 5 6 6 6 5 7 7 7 7 9 9 9 9 12 14 14 17 22 19 19 17 19 20 18 17 16 14
16 25 9 18 27 23 25 21 21 20 17 11 17 21 20 16 12 7 7 8 8 7 8 7 8 8 10 10 10 10 12 14 15 16 16 23 19 19 20 20 26 19 15 13
7 20 5 12 18 26 28 29 27 25 22 17 18 22 20 16 14 11 9 10 9 8 8 8 9 10 11 11 10 12 12 16 17 16 17 20 22 22 29 27 31 28 19 15
13 8 6 3 3 10 27 31 31 28 26 24 21 22 20 18 17 15 12 12 11 10 10 9 11 12 13 13 12 12 15 16 18 21 21 22 24 25 28 29 32 33 27 24
15 15 19 20 15 10 19 29 34 31 30 28 23 23 21 22 23 20 16 15 14 13 13 12 11 13 14 15 14 14 16 23 19 20 22 25 24 25 28 31 34 35 29 28
23 22 21 14 14 12 15 23 34 35 31 30 29 29 28 30 28 27 23 22 21 20 19 17 16 16 16 16 16 17 17 17 19 24 24 27 29 27 33 30 37 36 36 31
15 20 19 18 14 7 10 16 26 33 29 27 30 32 33 32 29 29 30 29 28 25 23 21 21 19 19 18 19 19 20 28 29 22 25 27 27 28 27 29 30 36 38 33
14 17 17 16 15 13 14 14 18 22 26 26 28 26 28 32 31 32 33 32 31 29 27 26 24 22 24 23 21 22 23 21 30 28 24 30 30 28 31 37 34 31 37 36
24 21 11 10 6 6 6 7 7 8 9 13 16 19 24 29 34 33 32 32 33 35 34 33 30 33 27 27 26 23 25 26 25 28 29 31 29 29 32 33 32 33 41 39
18 19 14 11 12 14 14 13 11 9 7 3 2 8 13 19 24 28 31 35 39 41 41 38 39 37 33 32 34 25 30 30 31 31 31 33 35 33 35 30 25 32 35 34
15 19 18 17 17 16 16 15 13 10 8 4 4 6 9 13 17 22 28 36 41 39 35 38 38 38 34 32 39 34 31 32 31 32 32 36 38 39 37 38 37 39 39 37
18 20 22 19 21 21 20 19 18 17 16 15 12 10 10 13 16 20 25 31 33 35 41 42 43 31 30 30 37 33 31 33 33 33 35 38 39 38 40 40 40 42 43 46
19 20 21 20 24 27 25 24 23 21 20 18 17 17 18 17 20 23 25 29 29 30 31 32 33 37 36 38 39 36 37 38 38 38 38 39 37 40 42 42 44 39 37 44
28 27 26 24 26 26 24 22 21 20 19 18 19 21 22 23 24 29 32 29 22 29 32 26 32 41 44 44 39 43 42 42 41 40 40 39 37 40 40 43 42 39 40 38
28 26 25 23 21 19 19 17 15 16 18 18 20 23 26 29 30 29 32 32 33 31 32 33 39 40 44 42 41 43 46 51 46 43 40 45 48 42 41 41 45 41 43 40
24 22 19 16 13 13 14 17 18 19 24 26 27 28 29 30 34 37 38 40 41 41 40 41 44 46 46 46 44 46 52 54 54 40 52 52 52 47 41 44 43 44 41 40
17 12 10 11 11 13 16 19 22 26 27 32 32 33 34 34 35 37 37 39 41 44 44 44 43 42 41 39 43 46 48 50 46 53 63 58 52 51 47 48 47 49 38 40
8 9 6 6 10 16 19 24 26 31 32 33 36 35 39 39 38 40 41 42 42 44 44 42 42 46 45 37 47 43 49 50 54 58 48 47 50 46 47 48 49 55 50 38
Wind_Direction_500mb
27 342 286 335 291 326 312 331 298 8 325 73 150 160 156 160 180 112 32 19 19 14 11 11 9 9 4 2 5 9 8 10 11 360 14 359 8 3 358 11 9 11 13 19
255 230 288 271 183 277 249 312 262 283 48 17 63 127 140 185 190 94 46 25 19 17 13 12 10 7 2 359 4 6 7 7 6 4 357 5 15 10 11 13 13 10 24 26
280 142 303 256 239 97 333 260 352 327 41 42 101 131 175 177 192 56 42 28 22 26 16 12 11 7 2 358 1 2 3 3 7 2 4 360 10 9 9 16 13 8 27 23
281 321 256 73 45 19 302 3 334 281 18 5 200 161 211 152 115 90 55 21 34 33 31 25 11 9 1 1 1 358 3 5 6 15 7 6 5 11 3 18 16 6 35 22
290 273 225 177 139 138 251 90 76 355 349 329 130 181 157 134 123 110 119 69 79 87 77 46 18 13 2 4 357 2 10 13 10 15 11 8 10 9 7 12 28 8 33 19
280 293 284 91 102 115 149 233 99 6 315 253 187 242 139 152 141 126 120 115 134 139 95 42 20 20 6 6 357 3 6 10 7 8 12 7 5 7 8 7 32 20 30 25
257 233 342 115 133 133 245 100 97 56 24 210 239 77 119 139 126 131 162 155 148 147 170 62 22 19 7 1 359 359 1 1 358 356 360 352 358 359 4 359 24 9 30 33
235 289 272 128 143 244 111 131 107 90 38 194 144 155 156 142 129 139 165 181 168 193 220 224 358 3 360 356 358 355 356 354 355 353 352 340 349 354 352 11 3 2 16 55
331 36 112 173 18 138 153 145 156 150 133 169 182 187 184 159 154 156 190 200 207 223 232 233 284 344 356 346 350 354 356 351 350 341 340 345 336 348 355 341 350 350 348 345
290 259 198 193 176 172 181 175 174 175 171 164 187 190 190 177 176 188 197 212 221 216 226 250 267 301 326 335 329 342 348 346 338 331 353 352 347 338 336 338 335 329 325 330
261 255 189 208 201 196 194 190 186 182 180 177 183 194 194 191 200 215 215 212 213 232 246 248 257 278 294 309 314 322 320 329 328 333 323 331 333 327 330 328 329 310 299 292
317 17 253 47 207 207 203 202 198 191 185 180 184 187 196 201 206 216 223 218 222 231 251 261 265 271 281 288 299 304 317 321 311 328 322 324 321 319 328 327 332 338 312 300
314 23 1 7 302 236 218 212 206 202 194 183 180 182 193 204 207 210 216 221 225 242 251 263 269 273 275 276 281 294 303 316 316 305 311 314 316 316 321 320 318 315 315 313
256 281 272 265 267 243 235 220 207 204 202 200 195 193 195 202 204 202 209 215 218 230 239 247 257 266 265 264 269 284 298 310 315 319 310 307 309 314 314 312 312 313 303 302
265 254 262 267 272 258 239 218 203 207 206 208 207 208 205 203 203 199 204 208 213 223 232 239 250 252 251 250 258 271 284 296 298 302 303 300 301 294 306 299 304 305 313 306
278 265 244 240 243 208 209 199 213 214 216 222 213 213 212 211 211 211 209 212 217 228 234 241 247 249 249 249 256 267 281 296 298 310 312 308 300 295 298 304 300 301 301 309
267 259 240 230 218 223 225 228 221 231 227 224 228 228 224 221 221 223 225 225 227 230 234 239 241 249 251 244 250 266 274 281 289 299 304 305 304 299 301 301 297 290 299 298
246 255 259 242 246 225 222 211 202 201 200 215 226 235 233 229 232 236 239 240 241 242 241 238 241 250 239 246 254 257 271 278 279 287 293 300 300 297 302 295 291 297 293 283
206 204 194 158 136 127 124 109 108 110 101 103 218 240 240 244 247 250 249 248 247 249 251 245 252 254 245 243 252 253 268 275 281 285 288 292 294 299 298 291 295 294 298 298
151 159 147 137 128 123 107 95 96 90 63 44 332 306 288 279 271 263 258 253 255 256 260 255 257 253 259 254 262 257 261 269 276 281 286 290 294 292 291 293 294 296 286 298
159 156 145 128 114 103 94 94 86 69 55 45 37 11 336 313 301 287 278 275 275 267 257 247 248 244 250 259 261 260 265 270 274 278 286 289 294 294 296 296 295 291 286 290
141 134 129 121 106 94 85 79 74 67 57 45 32 16 0 345 327 314 300 289 291 276 258 258 247 251 267 256 251 261 265 269 271 276 281 287 292 296 297 295 293 287 287 283
117 118 115 107 97 90 81 69 61 53 41 24 11 358 347 337 328 320 314 314 305 285 274 266 257 269 274 272 262 258 265 268 268 270 272 281 288 287 288 290 289 285 285 279
110 105 100 96 90 78 63 46 28 10 360 353 336 334 332 325 313 307 302 309 309 298 285 274 277 278 274 269 267 265 265 267 264 268 269 270 283 279 282 285 287 281 284 277
108 102 96 86 68 41 21 356 352 330 326 325 323 315 313 311 305 303 300 301 301 299 291 287 287 288 285 280 272 271 269 268 265 264 278 276 266 263 271 284 286 286 281 277
109 98 64 47 32 7 348 338 325 321 312 314 313 310 311 312 309 307 304 302 300 297 294 292 290 290 285 285 284 274 275 277 274 283 283 273 282 291 279 275 280 286 277 269
85 95 20 350 330 330 323 325 326 315 310 310 306 306 309 312 308 306 305 304 302 300 299 298 292 290 297 284 291 288 278 277 280 277 286 290 290 282 286 273 267 276 270 263
Wind_Speed_850mb
8 8 11 8 9 8 15 14 11 22 15 14 20 17 17 13 7 2 7 12 15 14 16 18 18 18 20 21 22 24 22 22 23 29 25 28 31 29 34 32 28 34 36 33
12 7 14 14 4 11 4 8 11 11 25 16 12 16 19 15 6 2 9 10 12 11 12 16 18 18 19 19 19 22 21 20 21 22 29 28 31 30 31 37 26 33 42 38
18 2 12 20 13 3 4 6 11 18 18 9 7 15 16 13 4 7 6 7 9 8 9 12 16 17 18 16 18 20 18 18 20 21 21 26 28 28 28 35 30 31 40 38
11 6 19 18 9 6 8 5 3 8 8 7 4 14 16 7 14 5 3 7 5 5 4 8 13 16 16 14 18 18 16 17 19 19 20 21 25 26 27 28 26 29 35 31
12 20 11 20 12 6 4 9 4 11 5 4 6 11 10 7 7 5 4 3 4 3 4 7 12 13 15 14 17 17 15 16 16 17 19 21 22 25 23 22 24 28 33 31
16 11 9 20 18 11 3 8 10 8 5 3 7 20 23 18 11 10 4 3 3 4 4 5 9 11 15 14 17 15 13 14 15 16 17 20 23 22 21 20 21 16 23 27
17 13 3 21 21 13 14 12 10 10 6 5 9 22 24 15 11 8 4 5 5 5 2 2 6 10 14 14 15 15 12 13 14 15 16 18 20 21 22 20 15 13 16 22
12 10 18 22 18 8 17 17 14 8 6 6 10 14 14 12 10 7 5 3 4 3 3 2 3 9 12 12 12 14 12 13 13 15 16 16 19 20 15 22 18 16 15 12
9 10 7 19 3 19 21 16 13 10 7 6 15 18 14 12 9 5 6 6 5 5 6 4 4 7 10 10 10 12 13 13 13 15 17 17 17 19 21 17 18 20 14 11
14 19 12 22 10 20 22 17 16 15 13 9 17 19 17 14 10 5 6 6 6 5 7 7 7 7 9 9 9 9 12 14 14 17 22 19 19 17 19 20 18 17 16 14
16 25 9 18 27 23 25 21 21 20 17 11 17 21 20 16 12 7 7 8 8 7 8 7 8 8 10 10 10 10 12 14 15 16 16 23 19 19 20 20 26 19 15 13
7 20 5 12 18 26 28 29 27 25 22 17 18 22 20 16 14 11 9 10 9 8 8 8 9 10 11 11 10 12 12 16 17 16 17 20 22 22 29 27 31 28 19 15
13 8 6 3 3 10 27 31 31 28 26 24 21 22 20 18 17 15 12 12 11 10 10 9 11 12 13 13 12 12 15 16 18 21 21 22 24 25 28 29 32 33 27 24
15 15 19 20 15 10 19 29 34 31 30 28 23 23 21 22 23 20 16 15 14 13 13 12 11 13 14 15 14 14 16 23 19 20 22 25 24 25 28 31 34 35 29 28
23 22 21 14 14 12 15 23 34 35 31 30 29 29 28 30 28 27 23 22 21 20 19 17 16 16 16 16 16 17 17 17 19 24 24 27 29 27 33 30 37 36 36 31
15 20 19 18 14 7 10 16 26 33 29 27 30 32 33 32 29 29 30 29 28 25 23 21 21 19 19 18 19 19 20 28 29 22 25 27 27 28 27 29 30 36 38 33
14 17 17 16 15 13 14 14 18 22 26 26 28 26 28 32 31 32 33 32 31 29 27 26 24 22 24 23 21 22 23 21 30 28 24 30 30 28 31 37 34 31 37 36
24 21 11 10 6 6 6 7 7 8 9 13 16 19 24 29 34 33 32 32 33 35 34 33 30 33 27 27 26 23 25 26 25 28 29 31 29 29 32 33 32 33 41 39
18 19 14 11 12 14 14 13 11 9 7 3 2 8 13 19 24 28 31 35 39 41 41 38 39 37 33 32 34 25 30 30 31 31 31 33 35 33 35 30 25 32 35 34
15 19 18 17 17 16 16 15 13 10 8 4 4 6 9 13 17 22 28 36 41 39 35 38 38 38 34 32 39 34 31 32 31 32 32 36 38 39 37 38 37 39 39 37
18 20 22 19 21 21 20 19 18 17 16 15 12 10 10 13 16 20 25 31 33 35 41 42 43 31 30 30 37 33 31 33 33 33 35 38 39 38 40 40 40 42 43 46
19 20 21 20 24 27 25 24 23 21 20 18 17 17 18 17 20 23 25 29 29 30 31 32 33 37 36 38 39 36 37 38 38 38 38 39 37 40 42 42 44 39 37 44
28 27 26 24 26 26 24 22 21 20 19 18 19 21 22 23 24 29 32 29 22 29 32 26 32 41 44 44 39 43 42 42 41 40 40 39 37 40 40 43 42 39 40 38
28 26 25 23 21 19 19 17 15 16 18 18 20 23 26 29 30 29 32 32 33 31 32 33 39 40 44 42 41 43 46 51 46 43 40 45 48 42 41 41 45 41 43 40
24 22 19 16 13 13 14 17 18 19 24 26 27 28 29 30 34 37 38 40 41 41 40 41 44 46 46 46 44 46 52 54 54 40 52 52 52 47 41 44 43 44 41 40
17 12 10 11 11 13 16 19 22 26 27 32 32 33 34 34 35 37 37 39 41 44 44 44 43 42 41 39 43 46 48 50 46 53 63 58 52 51 47 48 47 49 38 40
8 9 6 6 10 16 19 24 26 31 32 33 36 35 39 39 38 40 41 42 42 44 44 42 42 46 45 37 47 43 49 50 54 58 48 47 50 46 47 48 49 55 50 38
Wind_Direction_850mb
27 342 286 335 291 326 312 331 298 8 325 73 150 160 156 160 180 112 32 19 19 14 11 11 9 9 4 2 5 9 8 10 11 360 14 359 8 3 358 11 9 11 13 19
255 230 288 271 183 277 249 312 262 283 48 17 63 127 140 185 190 94 46 25 19 17 13 12 10 7 2 359 4 6 7 7 6 4 357 5 15 10 11 13 13 10 24 26
280 142 303 256 239 97 333 260 352 327 41 42 101 131 175 177 192 56 42 28 22 26 16 12 11 7 2 358 1 2 3 3 7 2 4 360 10 9 9 16 13 8 27 23
281 321 256 73 45 19 302 3 334 281 18 5 200 161 211 152 115 90 55 21 34 33 31 25 11 9 1 1 1 358 3 5 6 15 7 6 5 11 3 18 16 6 35 22
290 273 225 177 139 138 251 90 76 355 349 329 130 181 157 134 123 110 119 69 79 87 77 46 18 13 2 4 357 2 10 13 10 15 11 8 10 9 7 12 28 8 33 19
280 293 284 91 102 115 149 233 99 6 315 253 187 242 139 152 141 126 120 115 134 139 95 42 20 20 6 6 357 3 6 10 7 8 12 7 5 7 8 7 32 20 30 25
257 233 342 115 133 133 245 100 97 56 24 210 239 77 119 139 126 131 162 155 148 147 170 62 22 19 7 1 359 359 1 1 358 356 360 352 358 359 4 359 24 9 30 33
235 289 272 128 143 244 111 131 107 90 38 194 144 155 156 142 129 139 165 181 168 193 220 224 358 3 360 356 358 355 356 354 355 353 352 340 349 354 352 11 3 2 16 55
331 36 112 173 18 138 153 145 156 150 133 169 182 187 184 159 154 156 190 200 207 223 232 233 284 344 356 346 350 354 356 351 350 341 340 345 336 348 355 341 350 350 348 345
290 259 198 193 176 172 181 175 174 175 171 164 187 190 190 177 176 188 197 212 221 216 226 250 267 301 326 335 329 342 348 346 338 331 353 352 347 338 336 338 335 329 325 330
261 255 189 208 201 196 194 190 186 182 180 177 183 194 194 191 200 215 215 212 213 232 246 248 257 278 294 309 314 322 320 329 328 333 323 331 333 327 330 328 329 310 299 292
317 17 253 47 207 207 203 202 198 191 185 180 184 187 196 201 206 216 223 218 222 231 251 261 265 271 281 288 299 304 317 321 311 328 322 324 321 319 328 327 332 338 312 300
314 23 1 7 302 236 218 212 206 202 194 183 180 182 193 204 207 210 216 221 225 242 251 263 269 273 275 276 281 294 303 316 316 305 311 314 316 316 321 320 318 315 315 313
256 281 272 265 267 243 235 220 207 204 202 200 195 193 195 202 204 202 209 215 218 230 239 247 257 266 265 264 269 284 298 310 315 319 310 307 309 314 314 312 312 313 303 302
265 254 262 267 272 258 239 218 203 207 206 208 207 208 205 203 203 199 204 208 213 223 232 239 250 252 251 250 258 271 284 296 298 302 303 300 301 294 306 299 304 305 313 306
278 265 244 240 243 208 209 199 213 214 216 222 213 213 212 211 211 211 209 212 217 228 234 241 247 249 249 249 256 267 281 296 298 310 312 308 300 295 298 304 300 301 301 309
267 259 240 230 218 223 225 228 221 231 227 224 228 228 224 221 221 223 225 225 227 230 234 239 241 249 251 244 250 266 274 281 289 299 304 305 304 299 301 301 297 290 299 298
246 255 259 242 246 225 222 211 202 201 200 215 226 235 233 229 232 236 239 240 241 242 241 238 241 250 239 246 254 257 271 278 279 287 293 300 300 297 302 295 291 297 293 283
206 204 194 158 136 127 124 109 108 110 101 103 218 240 240 244 247 250 249 248 247 249 251 245 252 254 245 243 252 253 268 275 281 285 288 292 294 299 298 291 295 294 298 298
151 159 147 137 128 123 107 95 96 90 63 44 332 306 288 279 271 263 258 253 255 256 260 255 257 253 259 254 262 257 261 269 276 281 286 290 294 292 291 293 294 296 286 298
159 156 145 128 114 103 94 94 86 69 55 45 37 11 336 313 301 287 278 275 275 267 257 247 248 244 250 259 261 260 265 270 274 278 286 289 294 294 296 296 295 291 286 290
141 134 129 121 106 94 85 79 74 67 57 45 32 16 0 345 327 314 300 289 291 276 258 258 247 251 267 256 251 261 265 269 271 276 281 287 292 296 297 295 293 287 287 283
117 118 115 107 97 90 81 69 61 53 41 24 11 358 347 337 328 320 314 314 305 285 274 266 257 269 274 272 262 258 265 268 268 270 272 281 288 287 288 290 289 285 285 279
110 105 100 96 90 78 63 46 28 10 360 353 336 334 332 325 313 307 302 309 309 298 285 274 277 278 274 269 267 265 265 267 264 268 269 270 283 279 282 285 287 281 284 277
108 102 96 86 68 41 21 356 352 330 326 325 323 315 313 311 305 303 300 301 301 299 291 287 287 288 285 280 272 271 269 268 265 264 278 276 266 263 271 284 286 286 281 277
109 98 64 47 32 7 348 338 325 321 312 314 313 310 311 312 309 307 304 302 300 297 294 292 290 290 285 285 284 274 275 277 274 283 283 273 282 291 279 275 280 286 277 269
85 95 20 350 330 330 323 325 326 315 310 310 306 306 309 312 308 306 305 304 302 300 299 298 292 290 297 284 291 288 278 277 280 277 286 290 290 282 286 273 267 276 270 263